カタログに戻る

STARLINK-34543

運用中通信VLEO
NORAD 64926·PAYLOAD·🇺🇸 United States

打ち上げ Jul 26, 2025 から Cape Canaveral Space Force Station

Loading…

次のパス (今後24時間)

TLE

最新Source: CelesTrak SupGP

元期: Sep 14, 2026, 14:12 UTC

1 64926C 25157Y   26257.59215278  .00034760  00000+0  11184-2 0  2571
2 64926  53.1595 187.0259 0001347  85.4808 236.6084 15.31666811    15

AllMySatでSTARLINK-34543をリアルタイム追跡

Download on the App Store